Location: Quebec
(46.8000°N, 71.2500°W)
Time: 01:08:26
(UTC-05:00)

Envisat - Pass Details

Date: 11 October 2017
Orbit: 764 x 766 km, 98.2° (Epoch: 16 December)

Event Time Altitude Azimuth Distance (km) Brightness Sun altitude
Exits shadow 22:10:59 11° 269° (W) 2,214 5.8 -40.5°
Maximum altitude 22:11:26 11° 274° (W) 2,207 5.8 -40.5°
Drops below altitude 10° 22:13:04 10° 293° (WNW) 2,311 6.1 -40.8°
Sets 22:17:14 0° 327° (NNW) 3,245 7.1 -41.3°
